Location: Gleizolles
(44.4833°N, 6.7667°E)
Time: 14:43:18
(UTC+00:00)

deb Explorer IX - Pass Details

Date: 25 June 2024
Orbit: 510 x 878 km, 38.7° (Epoch: 21 July)

Event Time Altitude Azimuth Distance (km) Brightness Sun altitude
Rises 12:15:02 0° 265° (W) 3,069 ? 67.4°
Reaches altitude 10° 12:18:42 10° 237° (WSW) 2,241 ? 67.1°
Maximum altitude 12:21:00 13° 211° (SSW) 2,099 ? 66.9°
Drops below altitude 10° 12:23:23 10° 186° (S) 2,345 ? 66.7°
Sets 12:27:25 0° 159° (SSE) 3,353 ? 66.4°
